Location: Kumla
(59.1265°N, 15.1401°E)
Time: 18:49:12
(UTC+01:00)

Altair - Pass Details

Date: 10 December 2023
Orbit: 1501 x 1682 km, 47.2° (Epoch: 25 February)

Event Time Altitude Azimuth Distance (km) Brightness Sun altitude
Rises 10:08:12 0° 257° (WSW) 4,803 10.0 5.2°
Reaches altitude 10° 10:11:34 10° 251° (WSW) 3,791 9.6 5.4°
Maximum altitude 10:20:11 40° 186° (S) 2,143 9.2 5.8°
Drops below altitude 10° 10:28:33 10° 121° (ESE) 3,677 10.4 6.2°
Sets 10:31:45 0° 115° (ESE) 4,645 10.7 6.3°
